Location: Unspecified
(42.1900°N, 71.3291°W)
Time: 14:55:06
(UTC-05:00)

Cosmos 2058 - Visible Passes

Search period start: 17 January 2018 00:00
Search period end: 27 January 2018 00:00
Orbit: 564 x 584 km, 82.5° (Epoch: 17 January)

Date Brightness Start Highest point End Pass type
(mag) Time Alt. Az. Time Alt. Az. Time Alt. Az.
17 Jan 3.9 05:52:33 10° N 05:56:41 51° E 06:00:46 10° SSE visible
17 Jan 5.1 18:17:34 10° SE 18:17:55 12° SE 18:17:55 12° SE visible
18 Jan 3.3 05:55:43 10° N 05:59:57 69° E 06:04:07 10° SSE visible
18 Jan 4.2 18:20:24 10° SSE 18:22:32 24° SE 18:22:32 24° SE visible
18 Jan 5.9 19:58:08 10° WSW 19:58:51 13° WSW 19:58:51 13° WSW visible
19 Jan 2.9 05:58:55 10° N 06:03:10 88° W 06:07:22 10° S visible
19 Jan 3.2 18:23:21 10° SSE 18:27:12 44° E 18:27:12 44° E visible
19 Jan 5.9 20:02:05 10° WSW 20:03:30 14° W 20:03:30 14° W visible
20 Jan 6.2 04:27:56 10° NE 04:28:58 11° ENE 04:30:00 10° E visible
20 Jan 2.9 06:02:11 10° NNW 06:06:23 66° W 06:10:32 10° S visible
20 Jan 2.8 18:26:24 10° S 18:30:30 60° E 18:31:52 38° NNE visible
20 Jan 6.1 20:06:25 10° W 20:07:52 11° WNW 20:08:11 11° WNW visible
21 Jan 6.0 04:30:04 10° NE 04:32:21 14° ENE 04:34:36 10° ESE visible
21 Jan 3.1 06:05:30 10° NNW 06:09:35 48° W 06:13:36 10° SSW visible
21 Jan 2.8 18:29:32 10° S 18:33:42 82° E 18:36:32 20° N visible
22 Jan 5.6 04:32:44 10° NNE 04:35:41 18° ENE 04:38:37 10° ESE visible
22 Jan 3.5 06:08:53 10° NNW 06:12:45 36° W 06:16:35 10° SSW visible
22 Jan 3.1 18:32:46 10° SSW 18:36:56 74° W 18:41:09 10° N visible
23 Jan 5.2 04:35:36 10° NNE 04:39:01 23° ENE 04:42:24 10° SE visible
23 Jan 3.9 06:12:20 10° NNW 06:15:54 27° W 06:19:27 10° SSW visible
23 Jan 3.6 18:36:05 10° SSW 18:40:11 55° W 18:44:19 10° N visible
24 Jan 4.8 04:38:34 10° NNE 04:42:19 30° ENE 04:46:02 10° SE visible
24 Jan 4.2 06:15:52 10° NW 06:19:03 21° W 06:22:11 10° SW visible
24 Jan 4.2 18:39:29 10° SSW 18:43:26 41° WNW 18:47:26 10° N visible
25 Jan 4.2 04:42:28 15° NNE 04:45:36 40° ENE 04:49:32 10° SSE visible
25 Jan 4.5 06:19:34 10° NW 06:22:09 16° W 06:24:44 10° SW visible
25 Jan 4.8 18:42:59 10° SW 18:46:43 31° WNW 18:50:30 10° NNW visible
26 Jan 3.6 04:46:52 28° NNE 04:48:52 53° E 04:52:57 10° SSE visible
26 Jan 4.8 06:23:36 10° WNW 06:25:15 12° W 06:26:54 10° WSW visible
26 Jan 5.3 18:46:36 10° SW 18:50:01 24° WNW 18:53:28 10° NNW visible
